,,PressureMeas_1m,,PRMeasQMR101_1,,RHStat155_1m_1,,SRMeasQMS101R_1m,,TAStat155_1m_1,,GenWind_1,,GenWind_1,
2018-12-08, 00:00:07,VALID,918.119,VALID,0.0,VALID,97.864,VALID,-0.007,VALID,20.496,VALID,359.0,VALID,0.0,
2018-12-08, 00:01:07,VALID,918.114,VALID,0.0,VALID,97.736,VALID,0.003,VALID,20.458,VALID,1.0,VALID,0.0,
2018-12-08, 00:02:07,VALID,918.11,VALID,0.0,VALID,97.771,VALID,-0.004,VALID,20.457,VALID,1.0,VALID,0.0,
2018-12-08, 00:03:07,VALID,918.099,VALID,0.0,VALID,97.755,VALID,0.001,VALID,20.45,VALID,1.0,VALID,0.0,
2018-12-08, 00:04:07,VALID,918.096,VALID,0.0,VALID,97.89,VALID,-0.002,VALID,20.484,VALID,360.0,VALID,0.0,
2018-12-08, 00:05:07,VALID,918.095,VALID,0.0,VALID,97.875,VALID,0.001,VALID,20.473,VALID,353.0,VALID,0.0,
2018-12-08, 00:06:07,VALID,918.105,VALID,0.0,VALID,97.782,VALID,0.001,VALID,20.448,VALID,350.0,VALID,0.0,
2018-12-08, 00:07:07,VALID,918.109,VALID,0.0,VALID,97.767,VALID,0.003,VALID,20.436,VALID,334.0,VALID,0.0,
2018-12-08, 00:08:07,VALID,918.115,VALID,0.0,VALID,97.85,VALID,-0.007,VALID,20.447,VALID,344.0,VALID,0.0,
2018-12-08, 00:09:07,VALID,918.137,VALID,0.0,VALID,97.858,VALID,0.004,VALID,20.438,VALID,360.0,VALID,0.0,
2018-12-08, 00:10:07,VALID,918.154,VALID,0.0,VALID,97.933,VALID,-0.005,VALID,20.456,VALID,16.0,VALID,0.0,
2018-12-08, 00:11:07,VALID,918.172,VALID,0.0,VALID,97.955,VALID,-0.013,VALID,20.454,VALID,18.0,VALID,0.0,
2018-12-08, 00:12:07,VALID,918.182,VALID,0.0,VALID,97.944,VALID,-0.007,VALID,20.427,VALID,13.0,VALID,0.0,
2018-12-08, 00:13:07,VALID,918.193,VALID,0.0,VALID,98.038,VALID,-0.001,VALID,20.426,VALID,3.0,VALID,0.0,
2018-12-08, 00:14:07,VALID,918.223,VALID,0.0,VALID,98.099,VALID,-0.006,VALID,20.44,VALID,347.0,VALID,0.0,
2018-12-08, 00:15:07,VALID,918.221,VALID,0.0,VALID,98.179,VALID,-0.012,VALID,20.457,VALID,341.0,VALID,0.0,
2018-12-08, 00:16:07,VALID,918.231,VALID,0.0,VALID,98.209,VALID,-0.005,VALID,20.465,VALID,317.0,VALID,0.0,
2018-12-08, 00:17:07,VALID,918.234,VALID,0.0,VALID,98.195,VALID,-0.001,VALID,20.438,VALID,304.0,VALID,0.0,
2018-12-08, 00:18:07,VALID,918.24,VALID,0.0,VALID,98.192,VALID,-0.008,VALID,20.42,VALID,318.0,VALID,0.0,
2018-12-08, 00:19:07,VALID,918.235,VALID,0.0,VALID,98.285,VALID,0.002,VALID,20.448,VALID,28.0,VALID,0.0,
2018-12-08, 00:20:07,VALID,918.247,VALID,0.0,VALID,98.345,VALID,-0.023,VALID,20.459,VALID,38.0,VALID,0.0,
2018-12-08, 00:21:07,VALID,918.239,VALID,0.0,VALID,98.331,VALID,-0.027,VALID,20.447,VALID,38.0,VALID,0.0,
2018-12-08, 00:22:07,VALID,918.241,VALID,0.0,VALID,98.282,VALID,-0.009,VALID,20.391,VALID,38.0,VALID,0.0,
2018-12-08, 00:23:07,VALID,918.23,VALID,0.0,VALID,98.32,VALID,-0.011,VALID,20.367,VALID,38.0,VALID,0.0,
2018-12-08, 00:24:07,VALID,918.23,VALID,0.0,VALID,98.36,VALID,-0.008,VALID,20.356,VALID,42.0,VALID,0.0,
2018-12-08, 00:25:07,VALID,918.214,VALID,0.0,VALID,98.363,VALID,0.008,VALID,20.334,VALID,42.0,VALID,0.0,
2018-12-08, 00:26:07,VALID,918.211,VALID,0.0,VALID,98.355,VALID,-0.007,VALID,20.299,VALID,42.0,VALID,0.0,
2018-12-08, 00:27:07,VALID,918.213,VALID,0.0,VALID,98.392,VALID,-0.004,VALID,20.291,VALID,42.0,VALID,0.0,
2018-12-08, 00:28:07,VALID,918.213,VALID,0.0,VALID,98.395,VALID,0.006,VALID,20.283,VALID,42.0,VALID,0.0,
2018-12-08, 00:29:07,VALID,918.19,VALID,0.0,VALID,98.426,VALID,0.011,VALID,20.295,VALID,42.0,VALID,0.0,
2018-12-08, 00:30:07,VALID,918.193,VALID,0.0,VALID,98.477,VALID,-0.01,VALID,20.313,VALID,42.0,VALID,0.0,
2018-12-08, 00:31:07,VALID,918.184,VALID,0.0,VALID,98.549,VALID,0.002,VALID,20.343,VALID,42.0,VALID,0.0,
2018-12-08, 00:32:07,VALID,918.169,VALID,0.0,VALID,98.61,VALID,-0.007,VALID,20.387,VALID,42.0,VALID,0.0,
2018-12-08, 00:33:07,VALID,918.137,VALID,0.0,VALID,98.614,VALID,-0.005,VALID,20.396,VALID,42.0,VALID,0.0,
2018-12-08, 00:34:07,VALID,918.128,VALID,0.0,VALID,98.573,VALID,-0.008,VALID,20.359,VALID,42.0,VALID,0.0,
2018-12-08, 00:35:07,VALID,918.112,VALID,0.0,VALID,98.522,VALID,-0.005,VALID,20.321,VALID,42.0,VALID,0.0,
2018-12-08, 00:36:07,VALID,918.086,VALID,0.0,VALID,98.472,VALID,-0.011,VALID,20.287,VALID,42.0,VALID,0.0,
2018-12-08, 00:37:07,VALID,918.092,VALID,0.0,VALID,98.519,VALID,0.003,VALID,20.299,VALID,42.0,VALID,0.0,
2018-12-08, 00:38:07,VALID,918.075,VALID,0.0,VALID,98.544,VALID,0.009,VALID,20.309,VALID,42.0,VALID,0.0,
2018-12-08, 00:39:07,VALID,918.071,VALID,0.0,VALID,98.491,VALID,-0.018,VALID,20.278,VALID,42.0,VALID,0.0,
2018-12-08, 00:40:07,VALID,918.076,VALID,0.0,VALID,98.452,VALID,-0.008,VALID,20.254,VALID,42.0,VALID,0.0,
2018-12-08, 00:41:07,VALID,918.059,VALID,0.0,VALID,98.463,VALID,0.036,VALID,20.252,VALID,42.0,VALID,0.0,
2018-12-08, 00:42:07,VALID,918.064,VALID,0.0,VALID,98.443,VALID,0.018,VALID,20.254,VALID,42.0,VALID,0.0,
2018-12-08, 00:43:07,VALID,918.067,VALID,0.0,VALID,98.476,VALID,0.02,VALID,20.258,VALID,42.0,VALID,0.0,
2018-12-08, 00:44:07,VALID,918.039,VALID,0.0,VALID,98.462,VALID,0.009,VALID,20.253,VALID,42.0,VALID,0.0,
2018-12-08, 00:45:07,VALID,918.021,VALID,0.0,VALID,98.472,VALID,0.03,VALID,20.248,VALID,42.0,VALID,0.0,
2018-12-08, 00:46:07,VALID,918.003,VALID,0.0,VALID,98.464,VALID,0.021,VALID,20.239,VALID,42.0,VALID,0.0,
2018-12-08, 00:47:07,VALID,917.977,VALID,0.0,VALID,98.484,VALID,0.038,VALID,20.239,VALID,42.0,VALID,0.0,
2018-12-08, 00:48:07,VALID,917.94,VALID,0.0,VALID,98.487,VALID,0.045,VALID,20.257,VALID,42.0,VALID,0.0,
2018-12-08, 00:49:07,VALID,917.932,VALID,0.0,VALID,98.51,VALID,0.014,VALID,20.277,VALID,42.0,VALID,0.0,
2018-12-08, 00:50:07,VALID,917.896,VALID,0.0,VALID,98.521,VALID,0.029,VALID,20.303,VALID,42.0,VALID,0.0,
2018-12-08, 00:51:07,VALID,917.859,VALID,0.0,VALID,98.576,VALID,0.021,VALID,20.343,VALID,42.0,VALID,0.0,
2018-12-08, 00:52:07,VALID,917.821,VALID,0.0,VALID,98.638,VALID,0.028,VALID,20.398,VALID,42.0,VALID,0.0,
2018-12-08, 00:53:07,VALID,917.819,VALID,0.0,VALID,98.643,VALID,0.028,VALID,20.404,VALID,42.0,VALID,0.0,
2018-12-08, 00:54:07,VALID,917.798,VALID,0.0,VALID,98.626,VALID,0.016,VALID,20.397,VALID,42.0,VALID,0.0,
2018-12-08, 00:55:07,VALID,917.791,VALID,0.0,VALID,98.624,VALID,0.015,VALID,20.413,VALID,42.0,VALID,0.0,
2018-12-08, 00:56:07,VALID,917.773,VALID,0.0,VALID,98.586,VALID,-0.003,VALID,20.418,VALID,42.0,VALID,0.0,
2018-12-08, 00:57:07,VALID,917.77,VALID,0.0,VALID,98.541,VALID,-0.007,VALID,20.392,VALID,42.0,VALID,0.0,
2018-12-08, 00:58:07,VALID,917.755,VALID,0.0,VALID,98.447,VALID,-0.007,VALID,20.358,VALID,42.0,VALID,0.0,
2018-12-08, 00:59:07,VALID,917.763,VALID,0.0,VALID,98.415,VALID,-0.009,VALID,20.352,VALID,42.0,VALID,0.0,
2018-12-08, 01:00:07,VALID,917.762,VALID,0.0,VALID,98.457,VALID,-0.016,VALID,20.398,VALID,42.0,VALID,0.0,
2018-12-08, 01:01:07,VALID,917.748,VALID,0.0,VALID,98.377,VALID,-0.003,VALID,20.342,VALID,42.0,VALID,0.0,
2018-12-08, 01:02:07,VALID,917.738,VALID,0.0,VALID,98.355,VALID,-0.007,VALID,20.349,VALID,42.0,VALID,0.0,
2018-12-08, 01:03:07,VALID,917.721,VALID,0.0,VALID,98.37,VALID,-0.025,VALID,20.371,VALID,42.0,VALID,0.0,
2018-12-08, 01:04:07,VALID,917.711,VALID,0.0,VALID,98.376,VALID,-0.014,VALID,20.384,VALID,42.0,VALID,0.0,
2018-12-08, 01:05:07,VALID,917.697,VALID,0.0,VALID,98.413,VALID,-0.024,VALID,20.388,VALID,42.0,VALID,0.0,
2018-12-08, 01:06:07,VALID,917.688,VALID,0.0,VALID,98.365,VALID,-0.017,VALID,20.382,VALID,42.0,VALID,0.0,
2018-12-08, 01:07:07,VALID,917.676,VALID,0.0,VALID,98.406,VALID,-0.013,VALID,20.412,VALID,42.0,VALID,0.0,
2018-12-08, 01:08:07,VALID,917.679,VALID,0.0,VALID,98.458,VALID,-0.01,VALID,20.45,VALID,41.0,VALID,0.0,
2018-12-08, 01:09:07,VALID,917.663,VALID,0.0,VALID,98.476,VALID,-0.009,VALID,20.445,VALID,41.0,VALID,0.0,
2018-12-08, 01:10:07,VALID,917.674,VALID,0.0,VALID,98.387,VALID,-0.024,VALID,20.404,VALID,41.0,VALID,0.0,
2018-12-08, 01:11:07,VALID,917.666,VALID,0.0,VALID,98.392,VALID,-0.034,VALID,20.411,VALID,41.0,VALID,0.0,
2018-12-08, 01:12:07,VALID,917.664,VALID,0.0,VALID,98.241,VALID,-0.014,VALID,20.345,VALID,41.0,VALID,0.0,
2018-12-08, 01:13:07,VALID,917.648,VALID,0.0,VALID,98.208,VALID,-0.004,VALID,20.314,VALID,41.0,VALID,0.0,
2018-12-08, 01:14:07,VALID,917.645,VALID,0.0,VALID,98.182,VALID,-0.017,VALID,20.294,VALID,41.0,VALID,0.0,
2018-12-08, 01:15:07,VALID,917.625,VALID,0.0,VALID,98.269,VALID,-0.014,VALID,20.3,VALID,41.0,VALID,0.0,
2018-12-08, 01:16:07,VALID,917.623,VALID,0.0,VALID,98.245,VALID,-0.028,VALID,20.295,VALID,41.0,VALID,0.0,
2018-12-08, 01:17:07,VALID,917.614,VALID,0.0,VALID,98.278,VALID,-0.033,VALID,20.297,VALID,41.0,VALID,0.0,
2018-12-08, 01:18:07,VALID,917.601,VALID,0.0,VALID,98.295,VALID,-0.03,VALID,20.292,VALID,41.0,VALID,0.0,
2018-12-08, 01:19:07,VALID,917.583,VALID,0.0,VALID,98.318,VALID,-0.018,VALID,20.291,VALID,41.0,VALID,0.0,
2018-12-08, 01:20:07,VALID,917.575,VALID,0.0,VALID,98.313,VALID,-0.037,VALID,20.267,VALID,41.0,VALID,0.0,
2018-12-08, 01:21:07,VALID,917.57,VALID,0.0,VALID,98.328,VALID,-0.037,VALID,20.264,VALID,41.0,VALID,0.0,
2018-12-08, 01:22:07,VALID,917.567,VALID,0.0,VALID,98.309,VALID,-0.021,VALID,20.248,VALID,41.0,VALID,0.0,
2018-12-08, 01:23:07,VALID,917.559,VALID,0.0,VALID,98.242,VALID,-0.016,VALID,20.209,VALID,41.0,VALID,0.0,
2018-12-08, 01:24:07,VALID,917.559,VALID,0.0,VALID,98.194,VALID,-0.024,VALID,20.183,VALID,41.0,VALID,0.0,
2018-12-08, 01:25:06,VALID,917.542,VALID,0.0,VALID,98.199,VALID,-0.026,VALID,20.185,VALID,41.0,VALID,0.0,
2018-12-08, 01:26:06,VALID,917.557,VALID,0.0,VALID,98.334,VALID,-0.035,VALID,20.254,VALID,41.0,VALID,0.0,
2018-12-08, 01:27:06,VALID,917.534,VALID,0.0,VALID,98.468,VALID,-0.015,VALID,20.304,VALID,41.0,VALID,0.0,
2018-12-08, 01:28:06,VALID,917.519,VALID,0.0,VALID,98.402,VALID,-0.014,VALID,20.267,VALID,40.0,VALID,0.0,
2018-12-08, 01:29:06,VALID,917.536,VALID,0.0,VALID,98.384,VALID,-0.021,VALID,20.251,VALID,40.0,VALID,0.0,
2018-12-08, 01:30:06,VALID,917.52,VALID,0.0,VALID,98.468,VALID,-0.016,VALID,20.271,VALID,40.0,VALID,0.0,
2018-12-08, 01:31:06,VALID,917.525,VALID,0.0,VALID,98.462,VALID,-0.03,VALID,20.271,VALID,40.0,VALID,0.0,
2018-12-08, 01:32:06,VALID,917.511,VALID,0.0,VALID,98.566,VALID,-0.02,VALID,20.321,VALID,40.0,VALID,0.0,
2018-12-08, 01:33:06,VALID,917.5,VALID,0.0,VALID,98.548,VALID,-0.024,VALID,20.314,VALID,40.0,VALID,0.0,
2018-12-08, 01:34:06,VALID,917.482,VALID,0.0,VALID,98.545,VALID,-0.026,VALID,20.296,VALID,40.0,VALID,0.0,
2018-12-08, 01:35:06,VALID,917.49,VALID,0.0,VALID,98.614,VALID,-0.027,VALID,20.336,VALID,40.0,VALID,0.0,
2018-12-08, 01:36:06,VALID,917.457,VALID,0.0,VALID,98.643,VALID,-0.02,VALID,20.344,VALID,40.0,VALID,0.0,
2018-12-08, 01:37:06,VALID,917.466,VALID,0.0,VALID,98.682,VALID,-0.021,VALID,20.368,VALID,40.0,VALID,0.0,
2018-12-08, 01:38:06,VALID,917.434,VALID,0.0,VALID,98.761,VALID,-0.026,VALID,20.421,VALID,40.0,VALID,0.0,
2018-12-08, 01:39:06,VALID,917.416,VALID,0.0,VALID,98.794,VALID,-0.006,VALID,20.443,VALID,40.0,VALID,0.0,
2018-12-08, 01:40:06,VALID,917.412,VALID,0.0,VALID,98.738,VALID,-0.015,VALID,20.42,VALID,40.0,VALID,0.0,
2018-12-08, 01:41:06,VALID,917.385,VALID,0.0,VALID,98.754,VALID,-0.012,VALID,20.413,VALID,40.0,VALID,0.0,
2018-12-08, 01:42:06,VALID,917.366,VALID,0.0,VALID,98.617,VALID,-0.004,VALID,20.314,VALID,40.0,VALID,0.0,
2018-12-08, 01:43:06,VALID,917.347,VALID,0.0,VALID,98.586,VALID,-0.001,VALID,20.258,VALID,40.0,VALID,0.0,
2018-12-08, 01:44:06,VALID,917.341,VALID,0.0,VALID,98.575,VALID,-0.002,VALID,20.239,VALID,42.0,VALID,0.0,
2018-12-08, 01:45:06,VALID,917.31,VALID,0.0,VALID,98.561,VALID,-0.005,VALID,20.231,VALID,44.0,VALID,0.0,
2018-12-08, 01:46:06,VALID,917.292,VALID,0.0,VALID,98.528,VALID,-0.014,VALID,20.203,VALID,45.0,VALID,0.0,
2018-12-08, 01:47:06,VALID,917.274,VALID,0.0,VALID,98.545,VALID,0.012,VALID,20.194,VALID,45.0,VALID,0.0,
2018-12-08, 01:48:06,VALID,917.267,VALID,0.0,VALID,98.564,VALID,-0.009,VALID,20.196,VALID,45.0,VALID,0.0,
2018-12-08, 01:49:06,VALID,917.259,VALID,0.0,VALID,98.589,VALID,-0.002,VALID,20.21,VALID,45.0,VALID,0.0,
2018-12-08, 01:50:06,VALID,917.259,VALID,0.0,VALID,98.569,VALID,-0.007,VALID,20.194,VALID,45.0,VALID,0.0,
2018-12-08, 01:51:06,VALID,917.237,VALID,0.0,VALID,98.598,VALID,-0.012,VALID,20.196,VALID,45.0,VALID,0.0,
2018-12-08, 01:52:06,VALID,917.231,VALID,0.0,VALID,98.646,VALID,-0.017,VALID,20.229,VALID,45.0,VALID,0.0,
2018-12-08, 01:53:06,VALID,917.233,VALID,0.0,VALID,98.655,VALID,-0.01,VALID,20.232,VALID,45.0,VALID,0.0,
2018-12-08, 01:54:06,VALID,917.223,VALID,0.0,VALID,98.674,VALID,-0.007,VALID,20.252,VALID,45.0,VALID,0.0,
2018-12-08, 01:55:06,VALID,917.225,VALID,0.0,VALID,98.717,VALID,0.0,VALID,20.276,VALID,45.0,VALID,0.0,
2018-12-08, 01:56:06,VALID,917.225,VALID,0.0,VALID,98.73,VALID,-0.011,VALID,20.285,VALID,45.0,VALID,0.0,
2018-12-08, 01:57:06,VALID,917.188,VALID,0.0,VALID,98.775,VALID,-0.003,VALID,20.303,VALID,32.0,VALID,0.0,
2018-12-08, 01:58:06,VALID,917.207,VALID,0.0,VALID,98.748,VALID,-0.017,VALID,20.308,VALID,25.0,VALID,0.0,
2018-12-08, 01:59:06,VALID,917.187,VALID,0.0,VALID,98.723,VALID,-0.021,VALID,20.296,VALID,23.0,VALID,0.0,
2018-12-08, 02:00:06,VALID,917.178,VALID,0.0,VALID,98.687,VALID,-0.023,VALID,20.289,VALID,23.0,VALID,0.0,
2018-12-08, 02:01:06,VALID,917.157,VALID,0.0,VALID,98.66,VALID,-0.006,VALID,20.269,VALID,23.0,VALID,0.0,
2018-12-08, 02:02:06,VALID,917.17,VALID,0.0,VALID,98.685,VALID,-0.002,VALID,20.32,VALID,23.0,VALID,0.0,
2018-12-08, 02:03:06,VALID,917.152,VALID,0.0,VALID,98.669,VALID,-0.011,VALID,20.331,VALID,23.0,VALID,0.0,
2018-12-08, 02:04:06,VALID,917.164,VALID,0.0,VALID,98.676,VALID,-0.007,VALID,20.338,VALID,23.0,VALID,0.0,
2018-12-08, 02:05:06,VALID,917.151,VALID,0.0,VALID,98.683,VALID,-0.01,VALID,20.348,VALID,23.0,VALID,0.0,
2018-12-08, 02:06:06,VALID,917.145,VALID,0.0,VALID,98.66,VALID,-0.021,VALID,20.35,VALID,23.0,VALID,0.0,
2018-12-08, 02:07:06,VALID,917.142,VALID,0.0,VALID,98.585,VALID,-0.02,VALID,20.314,VALID,23.0,VALID,0.0,
2018-12-08, 02:08:06,VALID,917.138,VALID,0.0,VALID,98.548,VALID,-0.01,VALID,20.3,VALID,22.0,VALID,0.0,
2018-12-08, 02:09:06,VALID,917.126,VALID,0.0,VALID,98.598,VALID,-0.007,VALID,20.332,VALID,12.0,VALID,0.0,
2018-12-08, 02:10:06,VALID,917.12,VALID,0.0,VALID,98.577,VALID,0.001,VALID,20.311,VALID,359.0,VALID,0.0,
2018-12-08, 02:11:06,VALID,917.11,VALID,0.0,VALID,98.622,VALID,-0.001,VALID,20.369,VALID,351.0,VALID,0.0,
2018-12-08, 02:12:06,VALID,917.104,VALID,0.0,VALID,98.74,VALID,0.0,VALID,20.434,VALID,348.0,VALID,0.0,
2018-12-08, 02:13:06,VALID,917.114,VALID,0.0,VALID,98.711,VALID,-0.007,VALID,20.385,VALID,267.0,VALID,0.0,
2018-12-08, 02:14:06,VALID,917.096,VALID,0.0,VALID,98.685,VALID,-0.004,VALID,20.358,VALID,260.0,VALID,0.0,
2018-12-08, 02:15:06,VALID,917.08,VALID,0.0,VALID,98.723,VALID,-0.004,VALID,20.379,VALID,260.0,VALID,0.0,
2018-12-08, 02:16:06,VALID,917.081,VALID,0.0,VALID,98.761,VALID,-0.002,VALID,20.39,VALID,260.0,VALID,0.0,
2018-12-08, 02:17:06,VALID,917.067,VALID,0.0,VALID,98.783,VALID,0.012,VALID,20.419,VALID,260.0,VALID,0.0,
2018-12-08, 02:18:06,VALID,917.059,VALID,0.0,VALID,98.808,VALID,0.006,VALID,20.433,VALID,260.0,VALID,0.0,
2018-12-08, 02:19:06,VALID,917.048,VALID,0.0,VALID,98.805,VALID,-0.015,VALID,20.434,VALID,260.0,VALID,0.0,
2018-12-08, 02:20:06,VALID,917.033,VALID,0.0,VALID,98.764,VALID,-0.001,VALID,20.413,VALID,260.0,VALID,0.0,
2018-12-08, 02:21:06,VALID,917.018,VALID,0.0,VALID,98.753,VALID,0.001,VALID,20.392,VALID,310.0,VALID,0.0,
2018-12-08, 02:22:06,VALID,917.008,VALID,0.0,VALID,98.784,VALID,-0.018,VALID,20.379,VALID,11.0,VALID,0.0,
2018-12-08, 02:23:06,VALID,916.985,VALID,0.0,VALID,98.794,VALID,-0.027,VALID,20.367,VALID,357.0,VALID,0.0,
2018-12-08, 02:24:06,VALID,916.972,VALID,0.0,VALID,98.729,VALID,-0.029,VALID,20.321,VALID,352.0,VALID,0.0,
2018-12-08, 02:25:06,VALID,916.967,VALID,0.0,VALID,98.734,VALID,-0.013,VALID,20.3,VALID,352.0,VALID,0.0,
2018-12-08, 02:26:06,VALID,916.95,VALID,0.0,VALID,98.73,VALID,-0.014,VALID,20.271,VALID,345.0,VALID,0.0,
2018-12-08, 02:27:06,VALID,916.931,VALID,0.0,VALID,98.651,VALID,0.007,VALID,20.223,VALID,314.0,VALID,0.0,
2018-12-08, 02:28:06,VALID,916.898,VALID,0.0,VALID,98.676,VALID,-0.004,VALID,20.234,VALID,1.0,VALID,0.0,
2018-12-08, 02:29:06,VALID,916.871,VALID,0.0,VALID,98.619,VALID,-0.025,VALID,20.215,VALID,6.0,VALID,0.0,
2018-12-08, 02:30:06,VALID,916.867,VALID,0.0,VALID,98.598,VALID,-0.014,VALID,20.187,VALID,16.0,VALID,0.0,
2018-12-08, 02:31:06,VALID,916.853,VALID,0.0,VALID,98.597,VALID,-0.015,VALID,20.166,VALID,9.0,VALID,0.0,
2018-12-08, 02:32:06,VALID,916.822,VALID,0.0,VALID,98.617,VALID,-0.004,VALID,20.182,VALID,6.0,VALID,0.0,
2018-12-08, 02:33:06,VALID,916.818,VALID,0.0,VALID,98.62,VALID,0.016,VALID,20.206,VALID,357.0,VALID,0.0,
2018-12-08, 02:34:06,VALID,916.807,VALID,0.0,VALID,98.63,VALID,0.009,VALID,20.207,VALID,346.0,VALID,0.0,
2018-12-08, 02:35:06,VALID,916.805,VALID,0.0,VALID,98.476,VALID,0.001,VALID,20.12,VALID,351.0,VALID,0.0,
2018-12-08, 02:36:06,VALID,916.798,VALID,0.0,VALID,98.495,VALID,-0.037,VALID,20.118,VALID,318.0,VALID,0.0,
2018-12-08, 02:37:06,VALID,916.78,VALID,0.0,VALID,98.479,VALID,-0.03,VALID,20.106,VALID,356.0,VALID,0.0,
2018-12-08, 02:38:06,VALID,916.772,VALID,0.0,VALID,98.531,VALID,-0.019,VALID,20.134,VALID,355.0,VALID,0.0,
2018-12-08, 02:39:06,VALID,916.759,VALID,0.0,VALID,98.484,VALID,-0.018,VALID,20.117,VALID,358.0,VALID,0.0,
2018-12-08, 02:40:06,VALID,916.74,VALID,0.0,VALID,98.463,VALID,-0.001,VALID,20.105,VALID,358.0,VALID,0.0,
2018-12-08, 02:41:06,VALID,916.715,VALID,0.0,VALID,98.515,VALID,0.002,VALID,20.113,VALID,358.0,VALID,0.0,
2018-12-08, 02:42:06,VALID,916.711,VALID,0.0,VALID,98.498,VALID,0.022,VALID,20.098,VALID,9.0,VALID,0.0,
2018-12-08, 02:43:06,VALID,916.713,VALID,0.0,VALID,98.489,VALID,0.012,VALID,20.08,VALID,9.0,VALID,0.0,
2018-12-08, 02:44:06,VALID,916.694,VALID,0.0,VALID,98.585,VALID,0.002,VALID,20.124,VALID,9.0,VALID,0.0,
2018-12-08, 02:45:06,VALID,916.669,VALID,0.0,VALID,98.609,VALID,-0.006,VALID,20.128,VALID,9.0,VALID,0.0,
2018-12-08, 02:46:06,VALID,916.651,VALID,0.0,VALID,98.569,VALID,-0.007,VALID,20.091,VALID,9.0,VALID,0.0,
2018-12-08, 02:47:06,VALID,916.624,VALID,0.0,VALID,98.538,VALID,0.0,VALID,20.064,VALID,9.0,VALID,0.0,
2018-12-08, 02:48:06,VALID,916.612,VALID,0.0,VALID,98.541,VALID,0.009,VALID,20.067,VALID,16.0,VALID,0.0,
2018-12-08, 02:49:06,VALID,916.609,VALID,0.0,VALID,98.51,VALID,0.003,VALID,20.052,VALID,23.0,VALID,0.0,
2018-12-08, 02:50:06,VALID,916.605,VALID,0.0,VALID,98.471,VALID,0.0,VALID,20.019,VALID,16.0,VALID,0.0,
2018-12-08, 02:51:06,VALID,916.582,VALID,0.0,VALID,98.398,VALID,0.016,VALID,19.971,VALID,16.0,VALID,0.0,
2018-12-08, 02:52:06,VALID,916.571,VALID,0.0,VALID,98.45,VALID,0.009,VALID,19.974,VALID,17.0,VALID,0.0,
2018-12-08, 02:53:06,VALID,916.562,VALID,0.0,VALID,98.492,VALID,0.016,VALID,19.988,VALID,24.0,VALID,0.0,
2018-12-08, 02:54:06,VALID,916.544,VALID,0.0,VALID,98.498,VALID,0.017,VALID,19.977,VALID,37.0,VALID,0.0,
2018-12-08, 02:55:06,VALID,916.521,VALID,0.0,VALID,98.438,VALID,0.007,VALID,19.94,VALID,35.0,VALID,0.0,
2018-12-08, 02:56:06,VALID,916.538,VALID,0.0,VALID,98.397,VALID,0.011,VALID,19.91,VALID,33.0,VALID,0.0,
2018-12-08, 02:57:06,VALID,916.534,VALID,0.0,VALID,98.416,VALID,0.006,VALID,19.898,VALID,33.0,VALID,0.0,
2018-12-08, 02:58:06,VALID,916.536,VALID,0.0,VALID,98.429,VALID,0.004,VALID,19.906,VALID,33.0,VALID,0.0,
2018-12-08, 02:59:06,VALID,916.53,VALID,0.0,VALID,98.488,VALID,-0.003,VALID,19.938,VALID,33.0,VALID,0.0,
2018-12-08, 03:00:06,VALID,916.523,VALID,0.0,VALID,98.557,VALID,-0.007,VALID,19.973,VALID,33.0,VALID,0.0,
2018-12-08, 03:01:06,VALID,916.519,VALID,0.0,VALID,98.553,VALID,-0.001,VALID,19.98,VALID,33.0,VALID,0.0,
2018-12-08, 03:02:06,VALID,916.515,VALID,0.0,VALID,98.548,VALID,-0.001,VALID,19.988,VALID,33.0,VALID,0.0,
2018-12-08, 03:03:06,VALID,916.499,VALID,0.0,VALID,98.546,VALID,-0.004,VALID,19.995,VALID,30.0,VALID,0.0,
2018-12-08, 03:04:06,VALID,916.499,VALID,0.0,VALID,98.549,VALID,0.001,VALID,19.998,VALID,15.0,VALID,0.0,
2018-12-08, 03:05:06,VALID,916.493,VALID,0.0,VALID,98.531,VALID,0.003,VALID,19.997,VALID,332.0,VALID,0.0,
2018-12-08, 03:06:06,VALID,916.467,VALID,0.0,VALID,98.517,VALID,0.012,VALID,19.988,VALID,332.0,VALID,0.0,
2018-12-08, 03:07:06,VALID,916.47,VALID,0.0,VALID,98.544,VALID,0.012,VALID,19.992,VALID,332.0,VALID,0.0,
2018-12-08, 03:08:06,VALID,916.468,VALID,0.0,VALID,98.58,VALID,-0.01,VALID,20.002,VALID,332.0,VALID,0.0,
2018-12-08, 03:09:06,VALID,916.443,VALID,0.0,VALID,98.584,VALID,-0.009,VALID,19.996,VALID,332.0,VALID,0.0,
2018-12-08, 03:10:06,VALID,916.447,VALID,0.0,VALID,98.599,VALID,-0.001,VALID,19.991,VALID,305.0,VALID,0.0,
2018-12-08, 03:11:06,VALID,916.42,VALID,0.0,VALID,98.651,VALID,-0.009,VALID,20.012,VALID,303.0,VALID,0.0,
2018-12-08, 03:12:06,VALID,916.42,VALID,0.0,VALID,98.686,VALID,0.005,VALID,20.022,VALID,303.0,VALID,0.0,
2018-12-08, 03:13:06,VALID,916.4,VALID,0.0,VALID,98.73,VALID,0.002,VALID,20.035,VALID,342.0,VALID,0.0,
2018-12-08, 03:14:06,VALID,916.403,VALID,0.0,VALID,98.744,VALID,0.007,VALID,20.056,VALID,10.0,VALID,0.0,
2018-12-08, 03:15:06,VALID,916.396,VALID,0.0,VALID,98.78,VALID,0.014,VALID,20.08,VALID,10.0,VALID,0.0,
2018-12-08, 03:16:06,VALID,916.397,VALID,0.0,VALID,98.778,VALID,0.008,VALID,20.079,VALID,10.0,VALID,0.0,
2018-12-08, 03:17:06,VALID,916.392,VALID,0.0,VALID,98.737,VALID,-0.011,VALID,20.028,VALID,10.0,VALID,0.0,
2018-12-08, 03:18:06,VALID,916.4,VALID,0.0,VALID,98.73,VALID,0.01,VALID,20.001,VALID,356.0,VALID,0.0,
2018-12-08, 03:19:06,VALID,916.389,VALID,0.0,VALID,98.748,VALID,0.002,VALID,20.004,VALID,5.0,VALID,0.0,
2018-12-08, 03:20:06,VALID,916.372,VALID,0.0,VALID,98.754,VALID,0.001,VALID,20.008,VALID,7.0,VALID,0.0,
2018-12-08, 03:21:06,VALID,916.382,VALID,0.0,VALID,98.707,VALID,0.014,VALID,19.991,VALID,1.0,VALID,0.0,
2018-12-08, 03:22:06,VALID,916.394,VALID,0.0,VALID,98.658,VALID,0.016,VALID,19.988,VALID,358.0,VALID,0.0,
2018-12-08, 03:23:06,VALID,916.4,VALID,0.0,VALID,98.635,VALID,0.021,VALID,19.994,VALID,353.0,VALID,0.0,
2018-12-08, 03:24:06,VALID,916.39,VALID,0.0,VALID,98.643,VALID,0.015,VALID,20.016,VALID,351.0,VALID,0.0,
2018-12-08, 03:25:06,VALID,916.397,VALID,0.0,VALID,98.629,VALID,-0.008,VALID,20.029,VALID,344.0,VALID,0.0,
2018-12-08, 03:26:06,VALID,916.377,VALID,0.0,VALID,98.649,VALID,-0.011,VALID,20.061,VALID,337.0,VALID,0.0,
2018-12-08, 03:27:06,VALID,916.381,VALID,0.0,VALID,98.549,VALID,-0.004,VALID,20.041,VALID,333.0,VALID,0.0,
2018-12-08, 03:28:06,VALID,916.371,VALID,0.0,VALID,98.495,VALID,-0.01,VALID,20.053,VALID,335.0,VALID,0.0,
2018-12-08, 03:29:06,VALID,916.368,VALID,0.0,VALID,98.417,VALID,-0.009,VALID,20.053,VALID,333.0,VALID,0.0,
2018-12-08, 03:30:06,VALID,916.353,VALID,0.0,VALID,98.36,VALID,0.007,VALID,20.052,VALID,333.0,VALID,0.0,
2018-12-08, 03:31:06,VALID,916.338,VALID,0.0,VALID,98.354,VALID,-0.005,VALID,20.067,VALID,348.0,VALID,0.0,
2018-12-08, 03:32:06,VALID,916.339,VALID,0.0,VALID,98.325,VALID,0.006,VALID,20.079,VALID,345.0,VALID,0.0,
2018-12-08, 03:33:06,VALID,916.32,VALID,0.0,VALID,98.303,VALID,0.004,VALID,20.076,VALID,344.0,VALID,0.0,
2018-12-08, 03:34:06,VALID,916.317,VALID,0.0,VALID,98.348,VALID,0.009,VALID,20.094,VALID,305.0,VALID,0.0,
2018-12-08, 03:35:06,VALID,916.305,VALID,0.0,VALID,98.291,VALID,0.003,VALID,20.067,VALID,333.0,VALID,0.0,
2018-12-08, 03:36:06,VALID,916.318,VALID,0.0,VALID,98.289,VALID,0.004,VALID,20.065,VALID,349.0,VALID,0.0,
2018-12-08, 03:37:06,VALID,916.307,VALID,0.0,VALID,98.392,VALID,-0.006,VALID,20.091,VALID,350.0,VALID,0.0,
2018-12-08, 03:38:06,VALID,916.305,VALID,0.0,VALID,98.399,VALID,0.017,VALID,20.081,VALID,303.0,VALID,0.0,
2018-12-08, 03:39:06,VALID,916.293,VALID,0.0,VALID,98.393,VALID,0.015,VALID,20.076,VALID,298.0,VALID,0.0,
2018-12-08, 03:40:06,VALID,916.312,VALID,0.0,VALID,98.423,VALID,-0.004,VALID,20.098,VALID,320.0,VALID,0.0,
2018-12-08, 03:41:06,VALID,916.3,VALID,0.0,VALID,98.488,VALID,-0.01,VALID,20.129,VALID,324.0,VALID,0.0,
2018-12-08, 03:42:06,VALID,916.298,VALID,0.0,VALID,98.576,VALID,-0.024,VALID,20.147,VALID,4.0,VALID,0.0,
2018-12-08, 03:43:06,VALID,916.284,VALID,0.0,VALID,98.555,VALID,-0.021,VALID,20.124,VALID,352.0,VALID,0.0,